Time,TemperatureF,DewpointF,PressureIn,WindDirection,WindDirectionDegrees,WindSpeedMPH,WindSpeedGustMPH,Humidity,HourlyPrecipIn,Conditions,Clouds,dailyrainin,SoftwareType,DateUTC
2013-01-03 00:20:00,26.9,16.7,30.13,WNW,294,0.0,0.0,65,0.00,,,0.00,Wunderground v.1.13,2013-01-03 05:20:00,
2013-01-03 00:25:00,26.7,16.9,30.13,West,270,0.0,0.0,66,0.00,,,0.00,Wunderground v.1.13,2013-01-03 05:25:00,
2013-01-03 00:30:00,26.9,16.7,30.14,WNW,282,1.0,2.0,65,0.00,,,0.00,Wunderground v.1.13,2013-01-03 05:30:00,
2013-01-03 00:35:00,26.9,16.7,30.14,WNW,284,1.0,2.0,65,0.00,,,0.00,Wunderground v.1.13,2013-01-03 05:35:00,
2013-01-03 00:40:00,26.7,16.1,30.14,West,278,1.0,3.0,64,0.00,,,0.00,Wunderground v.1.13,2013-01-03 05:40:00,
2013-01-03 01:15:00,26.4,15.9,30.13,West,270,1.0,5.0,64,0.00,,,0.00,Wunderground v.1.13,2013-01-03 06:15:00,
2013-01-03 01:25:00,26.4,15.5,30.13,WNW,287,1.0,1.0,63,0.00,,,0.00,Wunderground v.1.13,2013-01-03 06:25:00,
2013-01-03 01:30:00,26.3,15.4,30.13,WNW,293,1.0,8.0,63,0.00,,,0.00,Wunderground v.1.13,2013-01-03 06:30:00,
2013-01-03 01:40:00,26.3,15.4,30.13,West,278,1.0,1.0,63,0.00,,,0.00,Wunderground v.1.13,2013-01-03 06:40:00,
2013-01-03 01:45:00,26.1,15.2,30.14,West,270,1.0,6.0,63,0.00,,,0.00,Wunderground v.1.13,2013-01-03 06:45:00,
2013-01-03 01:55:00,25.8,15.3,30.14,WNW,285,0.0,0.0,64,0.00,,,0.00,Wunderground v.1.13,2013-01-03 06:55:00,
2013-01-03 02:00:00,25.8,15.3,30.14,WSW,243,0.0,0.0,64,0.00,,,0.00,Wunderground v.1.13,2013-01-03 07:00:00,
2013-01-03 02:05:00,25.8,14.9,30.14,West,272,0.0,0.0,63,0.00,,,0.00,Wunderground v.1.13,2013-01-03 07:05:00,
2013-01-03 02:10:00,25.8,14.9,30.14,West,272,0.0,0.0,63,0.00,,,0.00,Wunderground v.1.13,2013-01-03 07:10:00,
2013-01-03 02:15:00,25.8,14.9,30.13,West,270,0.0,2.0,63,0.00,,,0.00,Wunderground v.1.13,2013-01-03 07:15:00,
2013-01-03 02:25:00,25.7,15.2,30.13,ESE,103,0.0,0.0,64,0.00,,,0.00,Wunderground v.1.13,2013-01-03 07:25:00,
2013-01-03 02:30:00,25.4,15.3,30.13,East,80,0.0,0.0,65,0.00,,,0.00,Wunderground v.1.13,2013-01-03 07:30:00,
2013-01-03 02:40:00,25.3,15.2,30.13,North,0,0.0,0.0,65,0.00,,,0.00,Wunderground v.1.13,2013-01-03 07:40:00,
2013-01-03 02:45:00,25.3,15.2,30.14,North,0,0.0,0.0,65,0.00,,,0.00,Wunderground v.1.13,2013-01-03 07:45:00,
2013-01-03 02:50:00,24.7,14.9,30.14,North,352,0.0,0.0,66,0.00,,,0.00,Wunderground v.1.13,2013-01-03 07:50:00,
2013-01-03 02:55:00,24.5,14.8,30.14,North,352,0.0,1.0,66,0.00,,,0.00,Wunderground v.1.13,2013-01-03 07:55:00,
2013-01-03 03:00:00,24.2,14.5,30.14,North,0,0.0,1.0,66,0.00,,,0.00,Wunderground v.1.13,2013-01-03 08:00:00,
2013-01-03 03:05:00,24.2,14.5,30.14,North,8,0.0,0.0,66,0.00,,,0.00,Wunderground v.1.13,2013-01-03 08:05:00,
2013-01-03 03:15:00,23.8,14.1,30.13,West,270,0.0,1.0,66,0.00,,,0.00,Wunderground v.1.13,2013-01-03 08:15:00,
2013-01-03 03:25:00,-999.9,-99.9,30.13,North,32767,-999.0,0.0,255,-99.99,,,0.00,Wunderground v.1.13,2013-01-03 08:25:00,
2013-01-03 03:30:00,-999.9,-99.9,30.13,N/A,-737280,0.0,0.0,-32768,0.00,,,0.00,Wunderground v.1.13,2013-01-03 08:30:00,
2013-01-03 03:40:00,-999.9,-99.9,30.13,North,32767,-999.0,0.0,255,-99.99,,,0.00,Wunderground v.1.13,2013-01-03 08:40:00,
2013-01-03 03:45:00,-999.9,-99.9,30.13,N/A,-737280,0.0,0.0,-32768,0.00,,,0.00,Wunderground v.1.13,2013-01-03 08:45:00,
2013-01-03 03:55:00,-999.9,-99.9,30.13,North,32767,-999.0,0.0,255,-99.99,,,0.00,Wunderground v.1.13,2013-01-03 08:55:00,
2013-01-03 04:00:00,-999.9,-99.9,30.13,North,32767,-999.0,0.0,255,-99.99,,,0.00,Wunderground v.1.13,2013-01-03 09:00:00,
2013-01-03 04:10:00,-999.9,-99.9,30.13,North,32767,-999.0,0.0,255,-99.99,,,0.00,Wunderground v.1.13,2013-01-03 09:10:00,
2013-01-03 04:15:00,-999.9,-99.9,30.12,North,32767,-999.0,0.0,255,-99.99,,,0.00,Wunderground v.1.13,2013-01-03 09:15:00,
2013-01-03 04:20:00,-999.9,-99.9,30.12,North,32767,-999.0,0.0,255,-99.99,,,0.00,Wunderground v.1.13,2013-01-03 09:20:00,
2013-01-03 04:30:00,-999.9,-99.9,30.13,North,32767,-999.0,0.0,255,-99.99,,,0.00,Wunderground v.1.13,2013-01-03 09:30:00,
2013-01-03 04:35:00,-999.9,-99.9,30.13,North,32767,-999.0,0.0,255,-99.99,,,0.00,Wunderground v.1.13,2013-01-03 09:35:00,
2013-01-03 04:40:00,-999.9,-99.9,30.13,North,32767,-999.0,0.0,255,-99.99,,,0.00,Wunderground v.1.13,2013-01-03 09:40:00,
2013-01-03 04:50:00,-999.9,-99.9,30.14,North,32767,-999.0,0.0,255,-99.99,,,0.00,Wunderground v.1.13,2013-01-03 09:50:00,
2013-01-03 04:55:00,-999.9,-99.9,30.14,North,32767,-999.0,0.0,255,-99.99,,,0.00,Wunderground v.1.13,2013-01-03 09:55:00,
2013-01-03 05:00:00,-999.9,-99.9,30.14,N/A,-737280,0.0,0.0,-32768,0.00,,,0.00,Wunderground v.1.13,2013-01-03 10:00:00,
2013-01-03 05:10:00,-999.9,-99.9,30.14,North,32767,-999.0,0.0,255,-99.99,,,0.00,Wunderground v.1.13,2013-01-03 10:10:00,
2013-01-03 05:15:00,-999.9,-99.9,30.14,N/A,-737280,0.0,0.0,-32768,0.00,,,0.00,Wunderground v.1.13,2013-01-03 10:15:00,
2013-01-03 05:25:00,-999.9,-99.9,30.14,North,32767,-999.0,0.0,255,-99.99,,,0.00,Wunderground v.1.13,2013-01-03 10:25:00,
2013-01-03 05:30:00,-999.9,-99.9,30.14,N/A,-737280,0.0,0.0,-32768,0.00,,,0.00,Wunderground v.1.13,2013-01-03 10:30:00,
2013-01-03 05:40:00,-999.9,-99.9,30.14,North,32767,-999.0,0.0,255,-99.99,,,0.00,Wunderground v.1.13,2013-01-03 10:40:00,
2013-01-03 05:45:00,-999.9,-99.9,30.14,N/A,-737280,0.0,0.0,-32768,0.00,,,0.00,Wunderground v.1.13,2013-01-03 10:45:00,
2013-01-03 05:50:00,-999.9,-99.9,30.14,North,32767,-999.0,0.0,255,-99.99,,,0.00,Wunderground v.1.13,2013-01-03 10:50:00,
2013-01-03 05:55:00,17.7,-99.9,30.14,NNE,27,1.0,1.0,255,-99.99,,,0.00,Wunderground v.1.13,2013-01-03 10:55:00,
2013-01-03 06:05:00,17.5,-99.9,30.15,NNE,23,0.0,0.0,255,0.00,,,0.00,Wunderground v.1.13,2013-01-03 11:05:00,
2013-01-03 06:15:00,-999.9,-99.9,30.15,North,32767,-999.0,0.0,255,-99.99,,,0.00,Wunderground v.1.13,2013-01-03 11:15:00,
2013-01-03 06:20:00,-999.9,-99.9,30.15,North,32767,-999.0,0.0,255,-99.99,,,0.00,Wunderground v.1.13,2013-01-03 11:20:00,
2013-01-03 06:25:00,-999.9,-99.9,30.15,North,32767,-999.0,0.0,255,-99.99,,,0.00,Wunderground v.1.13,2013-01-03 11:25:00,
2013-01-03 06:30:00,-999.9,-99.9,30.16,NNW,338,1.0,1.0,-32768,0.00,,,0.00,Wunderground v.1.13,2013-01-03 11:30:00,
2013-01-03 06:40:00,-999.9,-99.9,30.16,West,277,1.0,1.0,65,0.00,,,0.00,Wunderground v.1.13,2013-01-03 11:40:00,
2013-01-03 06:45:00,-999.9,-99.9,30.16,West,270,0.0,2.0,65,0.00,,,0.00,Wunderground v.1.13,2013-01-03 11:45:00,
2013-01-03 06:55:00,15.4,5.7,30.16,West,277,0.0,0.0,65,0.00,,,0.00,Wunderground v.1.13,2013-01-03 11:55:00,
2013-01-03 07:05:00,14.8,5.2,30.16,West,277,0.0,0.0,65,0.00,,,0.00,Wunderground v.1.13,2013-01-03 12:05:00,
2013-01-03 07:15:00,14.8,5.2,30.16,North,6,1.0,2.0,65,0.00,,,0.00,Wunderground v.1.13,2013-01-03 12:15:00,
2013-01-03 07:20:00,14.1,4.5,30.16,North,6,1.0,1.0,65,0.00,,,0.00,Wunderground v.1.13,2013-01-03 12:20:00,
2013-01-03 07:30:00,13.6,4.3,30.16,North,0,0.0,1.0,66,0.00,,,0.00,Wunderground v.1.13,2013-01-03 12:30:00,
2013-01-03 07:40:00,13.3,4.1,30.16,NNE,24,1.0,2.0,66,0.00,,,0.00,Wunderground v.1.13,2013-01-03 12:40:00,
2013-01-03 07:45:00,13.1,3.9,30.16,NNE,23,1.0,3.0,66,0.00,,,0.00,Wunderground v.1.13,2013-01-03 12:45:00,
2013-01-03 07:55:00,12.9,3.7,30.16,NNW,333,0.0,0.0,66,0.00,,,0.00,Wunderground v.1.13,2013-01-03 12:55:00,
2013-01-03 08:00:00,12.9,4.0,30.16,NNE,23,0.0,2.0,67,0.00,,,0.00,Wunderground v.1.13,2013-01-03 13:00:00,
2013-01-03 08:10:00,12.6,3.7,30.16,WNW,291,0.0,0.0,67,0.00,,,0.00,Wunderground v.1.13,2013-01-03 13:10:00,
2013-01-03 08:15:00,12.6,3.4,30.16,WNW,293,0.0,1.0,66,0.00,,,0.00,Wunderground v.1.13,2013-01-03 13:15:00,
2013-01-03 08:25:00,12.4,3.2,30.16,North,6,0.0,0.0,66,0.00,,,0.00,Wunderground v.1.13,2013-01-03 13:25:00,
2013-01-03 08:30:00,12.4,3.2,30.16,North,0,0.0,1.0,66,0.00,,,0.00,Wunderground v.1.13,2013-01-03 13:30:00,
2013-01-03 08:40:00,12.3,3.1,30.16,West,275,0.0,1.0,66,0.00,,,0.00,Wunderground v.1.13,2013-01-03 13:40:00,
2013-01-03 08:45:00,12.3,3.1,30.16,West,270,0.0,3.0,66,0.00,,,0.00,Wunderground v.1.13,2013-01-03 13:45:00,
2013-01-03 08:55:00,12.3,3.1,30.16,NNW,329,0.0,0.0,66,0.00,,,0.00,Wunderground v.1.13,2013-01-03 13:55:00,
2013-01-03 09:00:00,12.6,3.1,30.17,WNW,282,0.0,0.0,65,0.00,,,0.00,Wunderground v.1.13,2013-01-03 14:00:00,
2013-01-03 09:10:00,12.9,3.3,30.17,NNW,342,0.0,0.0,65,0.00,,,0.00,Wunderground v.1.13,2013-01-03 14:10:00,
2013-01-03 09:15:00,13.5,3.6,30.17,NNW,342,0.0,0.0,64,0.00,,,0.00,Wunderground v.1.13,2013-01-03 14:15:00,
2013-01-03 09:20:00,13.8,3.5,30.17,NW,312,0.0,0.0,63,0.00,,,0.00,Wunderground v.1.13,2013-01-03 14:20:00,
2013-01-03 09:25:00,14.1,3.5,30.17,NW,312,0.0,1.0,62,0.00,,,0.00,Wunderground v.1.13,2013-01-03 14:25:00,
2013-01-03 09:30:00,14.4,3.4,30.17,North,0,0.0,3.0,61,0.00,,,0.00,Wunderground v.1.13,2013-01-03 14:30:00,
2013-01-03 09:40:00,15.1,3.7,30.17,NE,45,0.0,0.0,60,0.00,,,0.00,Wunderground v.1.13,2013-01-03 14:40:00,
2013-01-03 09:45:00,15.4,4.0,30.17,West,270,0.0,3.0,60,0.00,,,0.00,Wunderground v.1.13,2013-01-03 14:45:00,
2013-01-03 09:55:00,15.4,4.0,30.17,NW,306,1.0,1.0,60,0.00,,,0.00,Wunderground v.1.13,2013-01-03 14:55:00,
2013-01-03 10:00:00,15.4,4.0,30.17,NW,315,0.0,2.0,60,0.00,,,0.00,Wunderground v.1.13,2013-01-03 15:00:00,
2013-01-03 10:10:00,16.4,4.6,30.17,North,0,1.0,1.0,59,0.00,,,0.00,Wunderground v.1.13,2013-01-03 15:10:00,
2013-01-03 10:15:00,16.9,5.0,30.16,NW,315,0.0,3.0,59,0.00,,,0.00,Wunderground v.1.13,2013-01-03 15:15:00,
2013-01-03 10:25:00,18.0,5.7,30.16,North,352,0.0,0.0,58,0.00,,,0.00,Wunderground v.1.13,2013-01-03 15:25:00,
2013-01-03 10:30:00,18.8,6.4,30.16,North,349,0.0,1.0,58,0.00,,,0.00,Wunderground v.1.13,2013-01-03 15:30:00,
2013-01-03 10:40:00,19.7,7.3,30.16,North,0,0.0,0.0,58,0.00,,,0.00,Wunderground v.1.13,2013-01-03 15:40:00,
2013-01-03 10:45:00,20.2,7.4,30.15,North,0,0.0,0.0,57,0.00,,,0.00,Wunderground v.1.13,2013-01-03 15:45:00,
2013-01-03 10:50:00,20.5,7.3,30.15,North,0,0.0,0.0,56,0.00,,,0.00,Wunderground v.1.13,2013-01-03 15:50:00,
2013-01-03 10:55:00,21.0,7.7,30.15,WNW,288,0.0,1.0,56,0.00,,,0.00,Wunderground v.1.13,2013-01-03 15:55:00,
2013-01-03 11:00:00,21.0,8.1,30.14,North,0,0.0,4.0,57,0.00,,,0.00,Wunderground v.1.13,2013-01-03 16:00:00,
2013-01-03 11:10:00,21.4,8.9,30.14,NNW,333,0.0,0.0,58,0.00,,,0.00,Wunderground v.1.13,2013-01-03 16:10:00,
2013-01-03 11:15:00,21.6,9.1,30.14,West,272,0.0,0.0,58,0.00,,,0.00,Wunderground v.1.13,2013-01-03 16:15:00,
2013-01-03 11:25:00,21.8,9.7,30.14,NW,315,0.0,0.0,59,0.00,,,0.00,Wunderground v.1.13,2013-01-03 16:25:00,
2013-01-03 11:30:00,22.1,9.6,30.13,West,260,0.0,0.0,58,0.00,,,0.00,Wunderground v.1.13,2013-01-03 16:30:00,
2013-01-03 11:35:00,22.1,9.6,30.13,WNW,282,1.0,2.0,58,0.00,,,0.00,Wunderground v.1.13,2013-01-03 16:35:00,
2013-01-03 11:40:00,22.2,10.4,30.13,WNW,282,1.0,1.0,60,0.00,,,0.00,Wunderground v.1.13,2013-01-03 16:40:00,
2013-01-03 11:45:00,22.9,10.7,30.11,West,270,1.0,3.0,59,0.00,,,0.00,Wunderground v.1.13,2013-01-03 16:45:00,
2013-01-03 11:55:00,23.6,11.0,30.11,NNW,330,0.0,2.0,58,0.00,,,0.00,Wunderground v.1.13,2013-01-03 16:55:00,
2013-01-03 12:00:00,23.9,10.9,30.10,WNW,288,0.0,1.0,57,0.00,,,0.00,Wunderground v.1.13,2013-01-03 17:00:00,
2013-01-03 12:10:00,24.5,11.4,30.10,West,272,1.0,2.0,57,0.00,,,0.00,Wunderground v.1.13,2013-01-03 17:10:00,
2013-01-03 12:15:00,24.5,11.0,30.09,West,260,1.0,2.0,56,0.00,,,0.00,Wunderground v.1.13,2013-01-03 17:15:00,
2013-01-03 12:20:00,24.8,11.3,30.09,West,267,1.0,1.0,56,0.00,,,0.00,Wunderground v.1.13,2013-01-03 17:20:00,
2013-01-03 12:30:00,25.1,11.2,30.09,WNW,294,2.0,2.0,55,0.00,,,0.00,Wunderground v.1.13,2013-01-03 17:30:00,
2013-01-03 12:40:00,26.0,11.2,30.08,WNW,296,1.0,1.0,53,0.00,,,0.00,Wunderground v.1.13,2013-01-03 17:40:00,
2013-01-03 12:45:00,26.1,11.7,30.08,WNW,296,1.0,1.0,54,0.00,,,0.00,Wunderground v.1.13,2013-01-03 17:45:00,
2013-01-03 12:50:00,26.4,11.6,30.07,WNW,296,1.0,1.0,53,0.00,,,0.00,Wunderground v.1.13,2013-01-03 17:50:00,
2013-01-03 12:55:00,26.7,11.8,30.07,West,274,1.0,2.0,53,0.00,,,0.00,Wunderground v.1.13,2013-01-03 17:55:00,
2013-01-03 13:00:00,26.9,11.6,30.07,West,277,1.0,1.0,52,0.00,,,0.00,Wunderground v.1.13,2013-01-03 18:00:00,
2013-01-03 13:05:00,27.5,11.7,30.07,NW,326,1.0,1.0,51,0.00,,,0.00,Wunderground v.1.13,2013-01-03 18:05:00,
2013-01-03 13:15:00,28.1,11.8,30.07,NW,315,0.0,2.0,50,0.00,,,0.00,Wunderground v.1.13,2013-01-03 18:15:00,
2013-01-03 13:20:00,28.2,11.5,30.05,WNW,302,0.0,0.0,49,0.00,,,0.00,Wunderground v.1.13,2013-01-03 18:20:00,
2013-01-03 13:25:00,28.5,11.3,30.05,West,274,1.0,3.0,48,0.00,,,0.00,Wunderground v.1.13,2013-01-03 18:25:00,
2013-01-03 13:30:00,28.7,11.5,30.05,West,278,1.0,1.0,48,0.00,,,0.00,Wunderground v.1.13,2013-01-03 18:30:00,
2013-01-03 13:35:00,28.7,11.5,30.06,WSW,258,1.0,1.0,48,0.00,,,0.00,Wunderground v.1.13,2013-01-03 18:35:00,
2013-01-03 13:45:00,29.0,11.7,30.06,West,261,1.0,1.0,48,0.00,,,0.00,Wunderground v.1.13,2013-01-03 18:45:00,
2013-01-03 13:50:00,29.1,11.4,30.05,WSW,253,0.0,1.0,47,0.00,,,0.00,Wunderground v.1.13,2013-01-03 18:50:00,
2013-01-03 13:55:00,29.3,11.5,30.05,WNW,295,0.0,0.0,47,0.00,,,0.00,Wunderground v.1.13,2013-01-03 18:55:00,
2013-01-03 14:00:00,29.7,11.4,30.05,WSW,241,0.0,0.0,46,0.00,,,0.00,Wunderground v.1.13,2013-01-03 19:00:00,
2013-01-03 14:09:00,29.7,10.9,30.05,West,267,1.0,1.0,45,0.00,,,0.00,Wunderground v.1.13,2013-01-03 19:09:00,
2013-01-03 14:14:00,29.7,10.9,30.05,North,0,1.0,1.0,45,0.00,,,0.00,Wunderground v.1.13,2013-01-03 19:14:00,
2013-01-03 14:54:00,30.0,11.2,30.04,West,274,0.0,0.0,45,0.00,,,0.00,Wunderground v.1.13,2013-01-03 19:54:00,
2013-01-03 14:59:00,30.0,11.7,30.04,West,274,0.0,0.0,46,0.00,,,0.00,Wunderground v.1.13,2013-01-03 19:59:00,
2013-01-03 15:04:00,30.0,11.7,30.04,WNW,282,1.0,1.0,46,0.00,,,0.00,Wunderground v.1.13,2013-01-03 20:04:00,
2013-01-03 15:09:00,30.1,11.3,30.04,WNW,282,0.0,0.0,45,0.00,,,0.00,Wunderground v.1.13,2013-01-03 20:09:00,
2013-01-03 15:14:00,30.1,11.8,30.04,WNW,282,0.0,0.0,46,0.00,,,0.00,Wunderground v.1.13,2013-01-03 20:14:00,
2013-01-03 15:20:00,30.3,11.5,30.03,WNW,282,0.0,0.0,45,0.00,,,0.00,Wunderground v.1.13,2013-01-03 20:20:00,
2013-01-03 15:25:00,30.6,11.7,30.03,WNW,282,0.0,0.0,45,0.00,,,0.00,Wunderground v.1.13,2013-01-03 20:25:00,
2013-01-03 15:30:00,30.6,12.2,30.03,WNW,282,0.0,0.0,46,0.00,,,0.00,Wunderground v.1.13,2013-01-03 20:30:00,
2013-01-03 15:35:00,30.6,12.7,30.03,South,171,0.0,2.0,47,0.00,,,0.00,Wunderground v.1.13,2013-01-03 20:35:00,
2013-01-03 15:40:00,30.4,12.1,30.03,South,171,0.0,0.0,46,0.00,,,0.00,Wunderground v.1.13,2013-01-03 20:40:00,
2013-01-03 15:45:00,30.4,12.5,30.03,SSE,151,0.0,0.0,47,0.00,,,0.00,Wunderground v.1.13,2013-01-03 20:45:00,
2013-01-03 15:50:00,30.3,12.5,30.03,West,265,0.0,1.0,47,0.00,,,0.00,Wunderground v.1.13,2013-01-03 20:50:00,
2013-01-03 15:59:00,30.1,12.7,30.03,West,264,0.0,2.0,48,0.00,,,0.00,Wunderground v.1.13,2013-01-03 20:59:00,
2013-01-03 16:04:00,30.1,12.7,30.03,WSW,240,0.0,0.0,48,0.00,,,0.00,Wunderground v.1.13,2013-01-03 21:04:00,
2013-01-03 16:09:00,30.1,12.7,30.03,WSW,240,0.0,0.0,48,0.00,,,0.00,Wunderground v.1.13,2013-01-03 21:09:00,
2013-01-03 16:14:00,30.0,12.7,30.03,WSW,240,0.0,1.0,48,0.00,,,0.00,Wunderground v.1.13,2013-01-03 21:14:00,
2013-01-03 16:19:00,30.0,13.1,30.03,WSW,240,0.0,0.0,49,0.00,,,0.00,Wunderground v.1.13,2013-01-03 21:19:00,
2013-01-03 16:24:00,29.8,12.5,30.03,WSW,240,0.0,0.0,48,0.00,,,0.00,Wunderground v.1.13,2013-01-03 21:24:00,
2013-01-03 16:29:00,29.7,12.8,30.03,WSW,240,0.0,1.0,49,0.00,,,0.00,Wunderground v.1.13,2013-01-03 21:29:00,
2013-01-03 16:34:00,29.5,13.6,30.04,WSW,240,0.0,0.0,51,0.00,,,0.00,Wunderground v.1.13,2013-01-03 21:34:00,
2013-01-03 16:40:00,29.4,13.5,30.04,WSW,240,0.0,0.0,51,0.00,,,0.00,Wunderground v.1.13,2013-01-03 21:40:00,
2013-01-03 16:45:00,29.1,13.6,30.04,WSW,240,0.0,0.0,52,0.00,,,0.00,Wunderground v.1.13,2013-01-03 21:45:00,
2013-01-03 16:50:00,29.0,14.0,30.03,WSW,240,0.0,0.0,53,0.00,,,0.00,Wunderground v.1.13,2013-01-03 21:50:00,
2013-01-03 16:55:00,28.8,13.8,30.03,WSW,240,0.0,0.0,53,0.00,,,0.00,Wunderground v.1.13,2013-01-03 21:55:00,
2013-01-03 17:00:00,28.5,13.9,30.03,WSW,240,0.0,0.0,54,0.00,,,0.00,Wunderground v.1.13,2013-01-03 22:00:00,
2013-01-03 17:09:00,27.9,14.2,30.03,WSW,240,0.0,0.0,56,0.00,,,0.00,Wunderground v.1.13,2013-01-03 22:09:00,
2013-01-03 17:14:00,27.6,14.3,30.03,WSW,240,0.0,0.0,57,0.00,,,0.00,Wunderground v.1.13,2013-01-03 22:14:00,
2013-01-03 17:19:00,27.5,14.6,30.04,WSW,240,0.0,0.0,58,0.00,,,0.00,Wunderground v.1.13,2013-01-03 22:19:00,
2013-01-03 17:24:00,27.2,14.4,30.04,WSW,240,0.0,0.0,58,0.00,,,0.00,Wunderground v.1.13,2013-01-03 22:24:00,
2013-01-03 17:29:00,27.0,14.6,30.04,WSW,240,0.0,0.0,59,0.00,,,0.00,Wunderground v.1.13,2013-01-03 22:29:00,
2013-01-03 17:34:00,26.7,14.3,30.05,WSW,240,0.0,0.0,59,0.00,,,0.00,Wunderground v.1.13,2013-01-03 22:34:00,
2013-01-03 17:39:00,26.6,14.6,30.05,WSW,240,0.0,0.0,60,0.00,,,0.00,Wunderground v.1.13,2013-01-03 22:39:00,
2013-01-03 17:44:00,26.4,14.4,30.05,WSW,240,0.0,0.0,60,0.00,,,0.00,Wunderground v.1.13,2013-01-03 22:44:00,
2013-01-03 17:50:00,26.3,14.7,30.05,WSW,240,0.0,0.0,61,0.00,,,0.00,Wunderground v.1.13,2013-01-03 22:50:00,
2013-01-03 17:55:00,26.4,14.8,30.05,WSW,240,0.0,0.0,61,0.00,,,0.00,Wunderground v.1.13,2013-01-03 22:55:00,
2013-01-03 18:00:00,26.4,14.8,30.05,WSW,240,0.0,0.0,61,0.00,,,0.00,Wunderground v.1.13,2013-01-03 23:00:00,
2013-01-03 18:09:00,26.7,15.4,30.04,WSW,240,0.0,0.0,62,0.00,,,0.00,Wunderground v.1.13,2013-01-03 23:09:00,
2013-01-03 18:14:00,26.7,15.4,30.04,WSW,240,0.0,0.0,62,0.00,,,0.00,Wunderground v.1.13,2013-01-03 23:14:00,
2013-01-03 18:19:00,26.9,15.2,30.05,WSW,240,0.0,0.0,61,0.00,,,0.00,Wunderground v.1.13,2013-01-03 23:19:00,
2013-01-03 18:24:00,27.0,15.3,30.05,WSW,240,0.0,0.0,61,0.00,,,0.00,Wunderground v.1.13,2013-01-03 23:24:00,
2013-01-03 18:29:00,27.2,15.5,30.05,WSW,240,0.0,0.0,61,0.00,,,0.00,Wunderground v.1.13,2013-01-03 23:29:00,
2013-01-03 18:34:00,27.3,15.6,30.05,WSW,240,0.0,0.0,61,0.00,,,0.00,Wunderground v.1.13,2013-01-03 23:34:00,
2013-01-03 18:39:00,27.5,15.8,30.05,SSW,208,0.0,1.0,61,0.00,,,0.00,Wunderground v.1.13,2013-01-03 23:39:00,
2013-01-03 18:44:00,27.9,15.4,30.05,SSW,208,0.0,0.0,59,0.00,,,0.00,Wunderground v.1.13,2013-01-03 23:44:00,
2013-01-03 18:50:00,28.4,15.5,30.05,WSW,240,0.0,0.0,58,0.00,,,0.00,Wunderground v.1.13,2013-01-03 23:50:00,
2013-01-03 18:55:00,28.5,15.6,30.05,WSW,240,0.0,0.0,58,0.00,,,0.00,Wunderground v.1.13,2013-01-03 23:55:00,
2013-01-03 19:00:00,28.7,15.8,30.05,South,189,0.0,1.0,58,0.00,,,0.00,Wunderground v.1.13,2013-01-04 00:00:00,
2013-01-03 19:05:00,28.8,15.9,30.05,SW,232,0.0,0.0,58,0.00,,,0.00,Wunderground v.1.13,2013-01-04 00:05:00,
2013-01-03 19:14:00,28.8,15.9,30.05,SW,216,1.0,3.0,58,0.00,,,0.00,Wunderground v.1.13,2013-01-04 00:14:00,
2013-01-03 19:19:00,29.0,16.1,30.05,SW,227,0.0,0.0,58,0.00,,,0.00,Wunderground v.1.13,2013-01-04 00:19:00,
2013-01-03 19:24:00,29.0,16.1,30.05,SW,226,0.0,2.0,58,0.00,,,0.00,Wunderground v.1.13,2013-01-04 00:24:00,
2013-01-03 19:29:00,29.1,16.1,30.05,WSW,247,1.0,1.0,58,0.00,,,0.00,Wunderground v.1.13,2013-01-04 00:29:00,
2013-01-03 19:34:00,29.1,16.1,30.06,WSW,254,1.0,2.0,58,0.00,,,0.00,Wunderground v.1.13,2013-01-04 00:34:00,
2013-01-03 19:39:00,29.1,16.1,30.06,West,264,1.0,3.0,58,0.00,,,0.00,Wunderground v.1.13,2013-01-04 00:39:00,
2013-01-03 19:45:00,29.3,15.9,30.06,WSW,256,1.0,1.0,57,0.00,,,0.00,Wunderground v.1.13,2013-01-04 00:45:00,
2013-01-03 19:50:00,29.4,16.0,30.06,West,265,2.0,4.0,57,0.00,,,0.00,Wunderground v.1.13,2013-01-04 00:50:00,
2013-01-03 19:55:00,29.4,15.6,30.06,SW,224,2.0,2.0,56,0.00,,,0.00,Wunderground v.1.13,2013-01-04 00:55:00,
2013-01-03 20:04:00,29.5,15.7,30.06,SSW,205,1.0,1.0,56,0.00,,,0.00,Wunderground v.1.13,2013-01-04 01:04:00,
2013-01-03 20:09:00,29.5,15.7,30.06,SW,217,2.0,2.0,56,0.00,,,0.00,Wunderground v.1.13,2013-01-04 01:09:00,
2013-01-03 20:14:00,29.5,15.7,30.06,West,281,2.0,2.0,56,0.00,,,0.00,Wunderground v.1.13,2013-01-04 01:14:00,
2013-01-03 20:19:00,29.4,16.0,30.06,SSW,208,1.0,3.0,57,0.00,,,0.00,Wunderground v.1.13,2013-01-04 01:19:00,
2013-01-03 20:24:00,29.4,16.0,30.06,West,261,1.0,1.0,57,0.00,,,0.00,Wunderground v.1.13,2013-01-04 01:24:00,
2013-01-03 20:29:00,29.4,15.6,30.06,SSW,198,1.0,2.0,56,0.00,,,0.00,Wunderground v.1.13,2013-01-04 01:29:00,
2013-01-03 20:34:00,29.3,15.9,30.06,West,263,1.0,1.0,57,0.00,,,0.00,Wunderground v.1.13,2013-01-04 01:34:00,
2013-01-03 20:40:00,29.1,15.7,30.06,WSW,253,1.0,1.0,57,0.00,,,0.00,Wunderground v.1.13,2013-01-04 01:40:00,
2013-01-03 20:45:00,29.1,15.7,30.06,WSW,258,1.0,1.0,57,0.00,,,0.00,Wunderground v.1.13,2013-01-04 01:45:00,
2013-01-03 20:50:00,29.0,15.7,30.05,WSW,256,1.0,1.0,57,0.00,,,0.00,Wunderground v.1.13,2013-01-04 01:50:00,
2013-01-03 20:55:00,29.0,15.7,30.05,West,260,1.0,1.0,57,0.00,,,0.00,Wunderground v.1.13,2013-01-04 01:55:00,
2013-01-03 21:00:00,28.8,15.5,30.05,SW,224,1.0,5.0,57,0.00,,,0.00,Wunderground v.1.13,2013-01-04 02:00:00,
2013-01-03 21:09:00,28.8,15.5,30.05,WSW,251,1.0,1.0,57,0.00,,,0.00,Wunderground v.1.13,2013-01-04 02:09:00,
2013-01-03 21:14:00,28.8,15.5,30.05,WSW,250,1.0,1.0,57,0.00,,,0.00,Wunderground v.1.13,2013-01-04 02:14:00,
2013-01-03 21:19:00,28.8,15.5,30.05,SW,227,1.0,1.0,57,0.00,,,0.00,Wunderground v.1.13,2013-01-04 02:19:00,
2013-01-03 21:24:00,28.7,15.4,30.05,SW,229,0.0,0.0,57,0.00,,,0.00,Wunderground v.1.13,2013-01-04 02:24:00,
2013-01-03 21:29:00,28.5,15.6,30.05,WSW,247,0.0,0.0,58,0.00,,,0.00,Wunderground v.1.13,2013-01-04 02:29:00,
2013-01-03 21:34:00,28.5,15.6,30.05,WNW,291,0.0,0.0,58,0.00,,,0.00,Wunderground v.1.13,2013-01-04 02:34:00,
2013-01-03 21:39:00,28.4,15.5,30.05,WNW,291,0.0,0.0,58,0.00,,,0.00,Wunderground v.1.13,2013-01-04 02:39:00,
2013-01-03 21:44:00,28.4,15.5,30.05,WNW,291,0.0,2.0,58,0.00,,,0.00,Wunderground v.1.13,2013-01-04 02:44:00,
2013-01-03 21:49:00,28.4,15.9,30.05,WNW,291,0.0,0.0,59,0.00,,,0.00,Wunderground v.1.13,2013-01-04 02:49:00,
2013-01-03 21:54:00,28.5,15.6,30.05,WNW,291,0.0,0.0,58,0.00,,,0.00,Wunderground v.1.13,2013-01-04 02:54:00,
2013-01-03 22:00:00,28.7,15.8,30.05,West,270,1.0,1.0,58,0.00,,,0.00,Wunderground v.1.13,2013-01-04 03:00:00,
2013-01-03 22:05:00,28.8,15.9,30.05,West,270,0.0,0.0,58,0.00,,,0.00,Wunderground v.1.13,2013-01-04 03:05:00,
2013-01-03 22:10:00,28.8,15.9,30.05,West,270,0.0,0.0,58,0.00,,,0.00,Wunderground v.1.13,2013-01-04 03:10:00,
2013-01-03 22:15:00,28.8,15.9,30.05,West,270,0.0,1.0,58,0.00,,,0.00,Wunderground v.1.13,2013-01-04 03:15:00,
2013-01-03 22:20:00,29.0,16.1,30.05,West,270,0.0,0.0,58,0.00,,,0.00,Wunderground v.1.13,2013-01-04 03:20:00,
2013-01-03 22:29:00,29.1,15.7,30.05,West,270,0.0,0.0,57,0.00,,,0.00,Wunderground v.1.13,2013-01-04 03:29:00,
2013-01-03 22:34:00,29.3,15.9,30.05,West,268,0.0,0.0,57,0.00,,,0.00,Wunderground v.1.13,2013-01-04 03:34:00,
2013-01-03 22:39:00,29.4,16.0,30.05,NNW,347,0.0,0.0,57,0.00,,,0.00,Wunderground v.1.13,2013-01-04 03:39:00,
2013-01-03 22:44:00,29.4,16.0,30.05,NNW,347,0.0,0.0,57,0.00,,,0.00,Wunderground v.1.13,2013-01-04 03:44:00,
2013-01-03 22:49:00,29.4,16.0,30.04,NNW,347,0.0,0.0,57,0.00,,,0.00,Wunderground v.1.13,2013-01-04 03:49:00,
2013-01-03 22:54:00,29.4,16.4,30.04,WSW,257,0.0,0.0,58,0.00,,,0.00,Wunderground v.1.13,2013-01-04 03:54:00,
2013-01-03 22:59:00,29.4,16.4,30.04,WSW,257,0.0,0.0,58,0.00,,,0.00,Wunderground v.1.13,2013-01-04 03:59:00,
2013-01-03 23:05:00,29.4,16.4,30.04,WSW,257,0.0,0.0,58,0.00,,,0.00,Wunderground v.1.13,2013-01-04 04:05:00,
2013-01-03 23:10:00,29.3,16.3,30.04,WSW,257,0.0,0.0,58,0.00,,,0.00,Wunderground v.1.13,2013-01-04 04:10:00,
2013-01-03 23:15:00,29.3,16.7,30.04,WSW,257,0.0,0.0,59,0.00,,,0.00,Wunderground v.1.13,2013-01-04 04:15:00,
2013-01-03 23:20:00,29.1,16.5,30.03,WSW,257,0.0,0.0,59,0.00,,,0.00,Wunderground v.1.13,2013-01-04 04:20:00,
2013-01-03 23:25:00,29.1,16.5,30.03,WSW,257,0.0,0.0,59,0.00,,,0.00,Wunderground v.1.13,2013-01-04 04:25:00,
2013-01-03 23:30:00,29.1,16.9,30.03,WSW,257,0.0,0.0,60,0.00,,,0.00,Wunderground v.1.13,2013-01-04 04:30:00,
2013-01-03 23:35:00,29.0,16.4,30.03,WSW,257,0.0,0.0,59,0.00,,,0.00,Wunderground v.1.13,2013-01-04 04:35:00,
2013-01-03 23:40:00,29.0,16.8,30.03,WSW,257,0.0,0.0,60,0.00,,,0.00,Wunderground v.1.13,2013-01-04 04:40:00,
2013-01-03 23:45:00,29.0,17.2,30.03,WSW,257,0.0,0.0,61,0.00,,,0.00,Wunderground v.1.13,2013-01-04 04:45:00,
2013-01-03 23:50:00,28.8,17.0,30.02,WSW,257,0.0,0.0,61,0.00,,,0.00,Wunderground v.1.13,2013-01-04 04:50:00,
2013-01-03 23:55:00,28.8,17.0,30.02,WSW,257,0.0,0.0,61,0.00,,,0.00,Wunderground v.1.13,2013-01-04 04:55:00,